Content
SEND FEEDBACK

Daily
Averages
Monthly
Summary
Mexico

CANCUN, QUINTANA ROO


Home > North America > Mexico > Quintana Roo
Elevation: 9 meters     Latitude: 21 09N     Longitude: 086 49W

WEATHER
 
SELECT A DAY
Number of Records: 165,825;   Date Range: 1/1/95 - 9/29/14
 
SHARE

PRINT THIS DATA

[ ← Previous Day ]
WEATHER ALMANAC - 15 AUGUST, 2014
[ Next Day → ]
[ °F ]   °C
Weather ElementAverageHighLow
Temperature29.2 °C33 °C (2:45 pm)26 °C (12:45 am)
Dewpoint24.9 °C26 °C (8:41 pm)24 °C (7:40 am)
Humidity78 %89 % (1:44 am)62 % (11:40 am)
Barometer1016.3 hPa1017.9 hPa (9:45 am)1014.6 hPa (4:47 am)
Wind Speed8.9 km/h16.7 km/h (2:42 pm)
Weather ElementAverage
Visibility11.3 km
Wind DirectionE (85.8 °)

Weather ElementTotal
Precipitation---
Cooling Degree Days11.2 (Base 18.3)
Growing Degree Days19.5 (Base 10)
Averaged from 24 records on 15 August, 2014
WEATHER CONDITIONS BREAKOUT
WIND DIRECTION BREAKOUT
WEATHER BY HOUR - 15 AUGUST, 2014
[ °F ]   °C
Local TimeTemperatureDewpointHumidityBarometerVisibilityWind DirectionWind SpeedGust SpeedPrecipitationEventsConditions
12:45 AM29 °C25 °C79 %1016.3 hPa11.3 kmEast (90°)9.3 km/hScattered Clouds
12:45 AM29 °C25 °C79 %1016.3 hPa11.3 kmEast (90°)9.3 km/hScattered Clouds
1:44 AM29 °C25 °C79 %1016.6 hPa11.3 kmCalmScattered Clouds
1:44 AM29 °C25 °C79 %1016.6 hPa11.3 kmCalmScattered Clouds
2:43 AM28 °C25 °C84 %1015.6 hPa11.3 kmESE (110°)9.3 km/hScattered Clouds
2:43 AM28 °C25 °C84 %1015.6 hPa11.3 kmESE (110°)9.3 km/hScattered Clouds
3:48 AM28 °C25 °C84 %1014.6 hPa11.3 kmESE (110°)9.3 km/hScattered Clouds
3:48 AM28 °C25 °C84 %1014.6 hPa11.3 kmESE (110°)9.3 km/hScattered Clouds
4:47 AM28 °C25 °C84 %1015.6 hPa11.3 kmSE (130°)9.3 km/hPartly Cloudy
4:47 AM28 °C25 °C84 %1015.6 hPa11.3 kmSE (130°)9.3 km/hPartly Cloudy
5:46 AM26 °C24 °C89 %1015.9 hPa11.3 kmCalmScattered Clouds
5:46 AM26 °C24 °C89 %1015.9 hPa11.3 kmCalmScattered Clouds
6:45 AM26 °C24 °C89 %1015.6 hPa11.3 kmCalmScattered Clouds
6:45 AM26 °C24 °C89 %1015.6 hPa11.3 kmCalmScattered Clouds
7:46 AM27 °C25 °C89 %1016.6 hPa11.3 kmNorth (350°)3.7 km/hMostly Cloudy
7:46 AM27 °C25 °C89 %1016.6 hPa11.3 kmNorth (350°)3.7 km/hMostly Cloudy
8:46 AM30 °C26 °C79 %1017.3 hPa11.3 kmCalmMostly Cloudy
8:46 AM30 °C26 °C79 %1017.3 hPa11.3 kmCalmMostly Cloudy
9:45 AM31 °C25 °C70 %1016.9 hPa11.3 kmESE (120°)16.7 km/hMostly Cloudy
9:45 AM31 °C25 °C70 %1016.9 hPa11.3 kmESE (120°)16.7 km/hMostly Cloudy
10:45 AM31 °C25 °C70 %1017.9 hPa11.3 kmSSE (150°)11.1 km/hMostly Cloudy
10:45 AM31 °C25 °C70 %1017.9 hPa11.3 kmSSE (150°)11.1 km/hMostly Cloudy
11:46 AM32 °C24 °C62 %1017.6 hPa11.3 kmEast (90°)16.7 km/hScattered Clouds
11:46 AM32 °C24 °C62 %1017.6 hPa11.3 kmEast (90°)16.7 km/hScattered Clouds
12:44 PM32 °C25 °C66 %1016.3 hPa11.3 kmESE (110°)14.8 km/hScattered Clouds
12:44 PM32 °C25 °C66 %1016.3 hPa11.3 kmESE (110°)14.8 km/hScattered Clouds
1:46 PM33 °C25 °C63 %1016.3 hPa11.3 kmESE (110°)16.7 km/hScattered Clouds
1:46 PM33 °C25 °C63 %1016.3 hPa11.3 kmESE (110°)16.7 km/hScattered Clouds
2:43 PM31 °C25 °C70 %1016.3 hPa11.3 kmEast (90°)16.7 km/hMostly Cloudy
2:43 PM31 °C25 °C70 %1016.3 hPa11.3 kmEast (90°)16.7 km/hMostly Cloudy
3:42 PM30 °C25 °C74 %1015.2 hPa11.3 kmENE (60°)7.4 km/hMostly Cloudy
3:42 PM30 °C25 °C74 %1015.2 hPa11.3 kmENE (60°)7.4 km/hMostly Cloudy
4:41 PM30 °C25 °C74 %1015.6 hPa11.3 kmEast (90°)9.3 km/hMostly Cloudy
4:41 PM30 °C25 °C74 %1015.6 hPa11.3 kmEast (90°)9.3 km/hMostly Cloudy
5:44 PM30 °C25 °C74 %1015.6 hPa11.3 kmENE (60°)9.3 km/hMostly Cloudy
5:44 PM30 °C25 °C74 %1015.6 hPa11.3 kmENE (60°)9.3 km/hMostly Cloudy
6:42 PM29 °C25 °C79 %1015.2 hPa11.3 kmENE (70°)13 km/hMostly Cloudy
6:42 PM29 °C25 °C79 %1015.2 hPa11.3 kmENE (70°)13 km/hMostly Cloudy
7:43 PM29 °C25 °C79 %1015.9 hPa11.3 kmENE (60°)5.6 km/hMostly Cloudy
7:43 PM29 °C25 °C79 %1015.9 hPa11.3 kmENE (60°)5.6 km/hMostly Cloudy
8:40 PM28 °C25 °C84 %1016.3 hPa11.3 kmENE (60°)9.3 km/hScattered Clouds
8:40 PM28 °C25 °C84 %1016.3 hPa11.3 kmENE (60°)9.3 km/hScattered Clouds
9:45 PM28 °C25 °C84 %1016.3 hPa11.3 kmENE7.4 km/hScattered Clo
9:45 PM28 °C25 °C84 %1016.3 hPa11.3 kmENE (70°)7.4 km/hScattered Clouds
10:44 PM28 °C25 °C84 %1017.3 hPa11.3 kmENE (60°)7.4 km/hScattered Clouds
11:52 PM28 °C25 °C84 %1016.9 hPa11.3 kmENE (70°)9.3 km/hScattered Clouds
Hourly data recorded from MMUN, located 0 kilometers away from Cancun, Quintana Roo







STORIES FROM OUR PARTNERS